sat.trackr.live / text

‹ back to catalog

STARLINK-34556

NORAD 64733 · 2025-144K

PAYLOAD ACTIVE UNKNOWN

§ Identity

Operator
Country
US
Launch date
2025-07-02
Launch site
AFETR
Launch vehicle
Mass (kg)
RCS (m²)

Purposes: comms

External: N2YO · Heavens-Above · Gunter

§ Orbital elements

Epoch: 2026-05-24T19:43:32.653344Z

Period
93.85 min
Inclination
53.1588°
Eccentricity
0.0001186
Mean motion
15.34397776 rev/d
Perigee alt
461.9 km
Apogee alt
463.5 km
Semi-major
6,840.8 km
B*
4.4082e-4
RAAN
184.1813°
Arg perigee
86.6337°
Mean anomaly
273.4801°
Rev number
5,141

§ Raw data

STARLINK-345561 64733U 25144K   26144.82190571  .00014546  00000+0  44082-3 0  99992 64733  53.1588 184.1813 0001186  86.6337 273.4801 15.34397776 51418

JSON: /api/v1/satellites/64733 · /tle

For live sub-satellite position, see the globe view (requires WebGL).

§ Visibility from observer

Set your observer location to see the next 7 days of passes ≥ 10°. The values pass through the URL so the page stays shareable.

No JS? Fill the form by hand. The geolocation button needs JavaScript.